Time,TemperatureF,DewpointF,PressureIn,WindDirection,WindDirectionDegrees,WindSpeedMPH,WindSpeedGustMPH,Humidity,HourlyPrecipIn,Conditions,Clouds,dailyrainin,SolarRadiationWatts/m^2,SoftwareType,DateUTC
2013-02-13 00:00:00,33.6,27.5,29.88,NE,51,0.0,7.2,78,0.00,,BKN046,0.23,0.00,VWS V14.01,2013-02-13 05:00:00,
2013-02-13 00:05:00,33.3,26.6,29.87,NE,51,0.0,3.6,76,0.00,,OVC042,0.00,0.00,VWS V14.01,2013-02-13 05:05:00,
2013-02-13 00:10:00,32.9,26.5,29.87,NE,51,0.0,3.6,77,0.00,,OVC042,0.00,0.00,VWS V14.01,2013-02-13 05:10:00,
2013-02-13 00:15:00,32.5,26.1,29.87,NE,51,0.0,7.2,77,0.00,,OVC042,0.00,0.00,VWS V14.01,2013-02-13 05:15:00,
2013-02-13 00:20:00,32.1,26.0,29.88,NE,51,0.0,7.2,78,0.00,,OVC042,0.00,0.00,VWS V14.01,2013-02-13 05:20:00,
2013-02-13 00:25:00,31.8,26.0,29.87,NE,51,0.0,7.2,79,0.00,,OVC042,0.00,0.00,VWS V14.01,2013-02-13 05:25:00,
2013-02-13 00:30:00,31.6,25.9,29.87,NE,51,0.0,7.2,79,0.00,,OVC042,0.00,0.00,VWS V14.01,2013-02-13 05:30:00,
2013-02-13 00:35:00,31.4,26.0,29.87,NE,51,0.0,3.6,80,0.00,,OVC042,0.00,0.00,VWS V14.01,2013-02-13 05:35:00,
2013-02-13 00:40:00,31.1,25.7,29.86,NE,51,0.0,3.6,80,0.00,,OVC042,0.00,0.00,VWS V14.01,2013-02-13 05:40:00,
2013-02-13 00:45:00,30.9,25.2,29.87,NE,51,0.0,3.6,79,0.00,,OVC042,0.00,0.00,VWS V14.01,2013-02-13 05:45:00,
2013-02-13 00:50:00,30.7,25.3,29.88,NE,51,3.6,3.6,80,0.00,,OVC042,0.00,0.00,VWS V14.01,2013-02-13 05:50:00,
2013-02-13 00:55:00,30.5,25.4,29.87,NE,51,0.0,3.6,81,0.00,,OVC042,0.00,0.00,VWS V14.01,2013-02-13 05:55:00,
2013-02-13 01:00:00,30.5,25.7,29.88,NE,51,0.0,3.6,82,0.00,,OVC042,0.00,0.00,VWS V14.01,2013-02-13 06:00:00,
2013-02-13 01:05:00,30.4,25.6,29.87,NE,51,0.0,3.6,82,0.00,,OVC048,0.00,0.00,VWS V14.01,2013-02-13 06:05:00,
2013-02-13 01:10:00,30.5,26.0,29.87,NE,51,0.0,3.6,83,0.00,,OVC048,0.00,0.00,VWS V14.01,2013-02-13 06:10:00,
2013-02-13 01:15:00,30.6,26.1,29.87,NE,51,0.0,3.6,83,0.00,,OVC048,0.00,0.00,VWS V14.01,2013-02-13 06:15:00,
2013-02-13 01:20:00,30.6,26.1,29.87,NE,51,0.0,3.6,83,0.00,,OVC048,0.00,0.00,VWS V14.01,2013-02-13 06:20:00,
2013-02-13 01:25:00,30.7,26.2,29.87,NE,51,0.0,3.6,83,0.00,,OVC048,0.00,0.00,VWS V14.01,2013-02-13 06:25:00,
2013-02-13 01:30:00,30.7,26.2,29.88,NE,51,0.0,3.6,83,0.00,,OVC048,0.00,0.00,VWS V14.01,2013-02-13 06:30:00,
2013-02-13 01:35:00,30.8,26.5,29.88,NE,51,0.0,3.6,84,0.00,,OVC048,0.00,0.00,VWS V14.01,2013-02-13 06:35:00,
2013-02-13 01:40:00,30.9,26.6,29.87,NE,48,3.6,10.8,84,0.00,,OVC048,0.00,0.00,VWS V14.01,2013-02-13 06:40:00,
2013-02-13 01:45:00,31.0,26.7,29.87,NE,48,0.0,10.8,84,0.00,,OVC048,0.00,0.00,VWS V14.01,2013-02-13 06:45:00,
2013-02-13 01:50:00,31.0,26.7,29.87,NE,48,0.0,10.8,84,0.00,,OVC048,0.00,0.00,VWS V14.01,2013-02-13 06:50:00,
2013-02-13 01:55:00,31.1,26.8,29.87,NE,48,0.0,10.8,84,0.00,,OVC048,0.00,0.00,VWS V14.01,2013-02-13 06:55:00,
2013-02-13 02:00:00,31.2,26.9,29.87,NE,48,0.0,10.8,84,0.00,,OVC048,0.00,0.00,VWS V14.01,2013-02-13 07:00:00,
2013-02-13 02:05:00,31.3,27.0,29.87,NE,48,0.0,3.6,84,0.00,,BKN046,0.00,0.00,VWS V14.01,2013-02-13 07:05:00,
2013-02-13 02:10:00,31.6,26.8,29.87,ENE,67,0.0,21.7,82,0.00,,BKN046,0.00,0.00,VWS V14.01,2013-02-13 07:10:00,
2013-02-13 02:15:00,32.0,26.2,29.87,NE,46,3.6,21.7,79,0.00,,BKN046,0.00,0.00,VWS V14.01,2013-02-13 07:15:00,
2013-02-13 02:20:00,32.7,26.3,29.87,East,84,7.2,21.7,77,0.00,,BKN046,0.00,0.00,VWS V14.01,2013-02-13 07:20:00,
2013-02-13 02:25:00,33.1,26.4,29.87,ENE,71,10.8,21.7,76,0.00,,BKN046,0.00,0.00,VWS V14.01,2013-02-13 07:25:00,
2013-02-13 02:30:00,33.5,26.4,29.88,ENE,71,0.0,21.7,75,0.00,,BKN046,0.00,0.00,VWS V14.01,2013-02-13 07:30:00,
2013-02-13 02:35:00,33.5,26.8,29.88,ENE,71,0.0,3.6,76,0.00,,BKN046,0.00,0.00,VWS V14.01,2013-02-13 07:35:00,
2013-02-13 02:40:00,33.5,27.7,29.88,ENE,71,0.0,3.6,79,0.00,,BKN046,0.00,0.00,VWS V14.01,2013-02-13 07:40:00,
2013-02-13 02:45:00,33.3,27.2,29.88,NNE,23,0.0,7.2,78,0.00,,BKN046,0.00,0.00,VWS V14.01,2013-02-13 07:45:00,
2013-02-13 02:50:00,33.2,26.5,29.89,SSE,166,0.0,10.8,76,0.00,,BKN046,0.00,0.00,VWS V14.01,2013-02-13 07:50:00,
2013-02-13 02:55:00,33.4,26.0,29.89,ESE,109,0.0,10.8,74,0.00,,BKN046,0.00,0.00,VWS V14.01,2013-02-13 07:55:00,
2013-02-13 03:00:00,33.7,26.0,29.89,East,81,0.0,14.4,73,0.00,,BKN046,0.00,0.00,VWS V14.01,2013-02-13 08:00:00,
2013-02-13 03:05:00,33.8,26.4,29.89,East,81,0.0,7.2,74,0.00,,OVC043,0.00,0.00,VWS V14.01,2013-02-13 08:05:00,
2013-02-13 03:10:00,33.9,25.8,29.89,East,87,0.0,10.8,72,0.00,,OVC043,0.00,0.00,VWS V14.01,2013-02-13 08:10:00,
2013-02-13 03:15:00,34.1,27.3,29.89,East,87,0.0,10.8,76,0.00,,OVC043,0.00,0.00,VWS V14.01,2013-02-13 08:15:00,
2013-02-13 03:20:00,33.9,27.5,29.89,East,87,0.0,10.8,77,0.00,,OVC043,0.00,0.00,VWS V14.01,2013-02-13 08:20:00,
2013-02-13 03:25:00,33.7,27.3,29.89,East,87,3.6,10.8,77,0.00,,OVC043,0.00,0.00,VWS V14.01,2013-02-13 08:25:00,
2013-02-13 03:30:00,33.6,27.8,29.89,East,87,0.0,10.8,79,0.00,,OVC043,0.00,0.00,VWS V14.01,2013-02-13 08:30:00,
2013-02-13 03:35:00,33.4,26.7,29.89,East,87,0.0,3.6,76,0.00,,OVC043,0.00,0.00,VWS V14.01,2013-02-13 08:35:00,
2013-02-13 03:40:00,33.3,27.5,29.89,East,87,3.6,3.6,79,0.00,,OVC043,0.00,0.00,VWS V14.01,2013-02-13 08:40:00,
2013-02-13 03:45:00,33.3,27.2,29.89,East,87,0.0,7.2,78,0.00,,OVC043,0.00,0.00,VWS V14.01,2013-02-13 08:45:00,
2013-02-13 03:50:00,33.2,26.8,29.89,North,5,10.8,10.8,77,0.00,,OVC043,0.00,0.00,VWS V14.01,2013-02-13 08:50:00,
2013-02-13 03:55:00,33.3,26.9,29.88,North,5,0.0,10.8,77,0.00,,OVC043,0.00,0.00,VWS V14.01,2013-02-13 08:55:00,
2013-02-13 04:00:00,33.3,27.8,29.88,North,5,0.0,10.8,80,0.00,,OVC043,0.00,0.00,VWS V14.01,2013-02-13 09:00:00,
2013-02-13 04:05:00,33.2,26.8,29.88,North,5,0.0,10.8,77,0.00,,OVC041,0.00,0.00,VWS V14.01,2013-02-13 09:05:00,
2013-02-13 04:10:00,33.1,27.3,29.88,North,5,0.0,10.8,79,0.00,,OVC041,0.00,0.00,VWS V14.01,2013-02-13 09:10:00,
2013-02-13 04:15:00,33.1,27.6,29.88,North,5,0.0,10.8,80,0.00,,OVC041,0.00,0.00,VWS V14.01,2013-02-13 09:15:00,
2013-02-13 04:20:00,32.9,27.4,29.88,North,5,0.0,10.8,80,0.00,,OVC041,0.00,0.00,VWS V14.01,2013-02-13 09:20:00,
2013-02-13 04:25:00,32.9,27.7,29.88,North,5,0.0,10.8,81,0.00,,OVC041,0.00,0.00,VWS V14.01,2013-02-13 09:25:00,
2013-02-13 04:30:00,32.8,27.3,29.88,North,5,0.0,10.8,80,0.00,,OVC041,0.00,0.00,VWS V14.01,2013-02-13 09:30:00,
2013-02-13 04:35:00,32.7,27.2,29.88,North,5,0.0,7.2,80,0.00,,OVC041,0.00,0.00,VWS V14.01,2013-02-13 09:35:00,
2013-02-13 04:40:00,32.7,27.5,29.89,North,5,0.0,7.2,81,0.00,,OVC041,0.00,0.00,VWS V14.01,2013-02-13 09:40:00,
2013-02-13 04:45:00,32.7,27.8,29.89,North,5,0.0,7.2,82,0.00,,OVC041,0.00,0.00,VWS V14.01,2013-02-13 09:45:00,
2013-02-13 04:50:00,32.6,27.7,29.88,North,5,0.0,7.2,82,0.00,,OVC041,0.00,0.00,VWS V14.01,2013-02-13 09:50:00,
2013-02-13 04:55:00,32.5,27.6,29.89,North,5,3.6,7.2,82,0.00,,OVC041,0.00,0.00,VWS V14.01,2013-02-13 09:55:00,
2013-02-13 05:00:00,32.4,27.8,29.89,North,5,3.6,7.2,83,0.00,,OVC041,0.00,0.00,VWS V14.01,2013-02-13 10:00:00,
2013-02-13 05:05:00,32.6,27.1,29.89,WNW,290,0.0,18.1,80,0.00,,OVC041,0.00,0.00,VWS V14.01,2013-02-13 10:05:00,
2013-02-13 05:10:00,32.7,27.8,29.88,WNW,290,0.0,18.1,82,0.00,,OVC041,0.00,0.00,VWS V14.01,2013-02-13 10:10:00,
2013-02-13 05:15:00,32.7,27.8,29.88,WNW,290,0.0,18.1,82,0.00,,OVC041,0.00,0.00,VWS V14.01,2013-02-13 10:15:00,
2013-02-13 05:20:00,32.6,28.0,29.88,WNW,290,0.0,18.1,83,0.00,,OVC041,0.00,0.00,VWS V14.01,2013-02-13 10:20:00,
2013-02-13 05:25:00,32.6,28.0,29.88,NW,308,0.0,18.1,83,0.00,,OVC041,0.00,0.00,VWS V14.01,2013-02-13 10:25:00,
2013-02-13 05:30:00,32.5,28.2,29.88,NW,308,0.0,18.1,84,0.00,,OVC041,0.00,0.00,VWS V14.01,2013-02-13 10:30:00,
2013-02-13 05:35:00,32.5,28.2,29.88,NW,308,0.0,3.6,84,0.00,,OVC041,0.00,0.00,VWS V14.01,2013-02-13 10:35:00,
2013-02-13 05:40:00,32.4,27.8,29.87,NW,308,0.0,3.6,83,0.00,,OVC041,0.00,0.00,VWS V14.01,2013-02-13 10:40:00,
2013-02-13 05:45:00,32.4,27.8,29.87,NW,308,0.0,7.2,83,0.00,,OVC041,0.00,0.00,VWS V14.01,2013-02-13 10:45:00,
2013-02-13 05:50:00,32.3,27.7,29.87,NW,308,0.0,7.2,83,0.00,,OVC041,0.00,0.00,VWS V14.01,2013-02-13 10:50:00,
2013-02-13 05:55:00,32.4,27.8,29.87,NW,308,0.0,7.2,83,0.00,,OVC041,0.00,0.00,VWS V14.01,2013-02-13 10:55:00,
2013-02-13 06:00:00,32.4,27.8,29.87,NW,308,7.2,7.2,83,0.00,,OVC041,0.00,0.00,VWS V14.01,2013-02-13 11:00:00,
2013-02-13 06:05:00,32.6,27.7,29.87,ESE,102,3.6,3.6,82,0.00,,OVC037,0.00,0.00,VWS V14.01,2013-02-13 11:05:00,
2013-02-13 06:10:00,32.9,26.8,29.87,East,99,14.4,18.1,78,0.00,,OVC037,0.00,0.00,VWS V14.01,2013-02-13 11:10:00,
2013-02-13 06:15:00,33.4,27.0,29.87,East,96,7.2,18.1,77,0.00,,OVC037,0.00,0.00,VWS V14.01,2013-02-13 11:15:00,
2013-02-13 06:20:00,33.5,26.8,29.87,East,96,3.6,18.1,76,0.00,,OVC037,0.00,0.00,VWS V14.01,2013-02-13 11:20:00,
2013-02-13 06:25:00,33.6,27.2,29.87,East,96,0.0,18.1,77,0.00,,OVC037,0.00,0.00,VWS V14.01,2013-02-13 11:25:00,
2013-02-13 06:30:00,33.6,27.8,29.87,East,96,0.0,18.1,79,0.00,,OVC037,0.00,0.00,VWS V14.01,2013-02-13 11:30:00,
2013-02-13 06:35:00,33.5,28.3,29.87,East,96,3.6,3.6,81,0.00,,OVC037,0.00,0.00,VWS V14.01,2013-02-13 11:35:00,
2013-02-13 06:40:00,33.3,27.5,29.87,ENE,67,3.6,10.8,79,0.00,,OVC037,0.00,0.00,VWS V14.01,2013-02-13 11:40:00,
2013-02-13 06:45:00,33.3,26.9,29.87,ENE,67,0.0,10.8,77,0.00,,OVC037,0.00,0.00,VWS V14.01,2013-02-13 11:45:00,
2013-02-13 06:50:00,33.3,27.2,29.88,ENE,68,7.2,10.8,78,0.00,,OVC037,0.00,0.00,VWS V14.01,2013-02-13 11:50:00,
2013-02-13 06:55:00,33.4,27.0,29.87,ESE,113,0.0,10.8,77,0.00,,OVC037,0.00,0.00,VWS V14.01,2013-02-13 11:55:00,
2013-02-13 07:00:00,33.3,27.2,29.87,ENE,78,0.0,10.8,78,0.00,,OVC037,0.00,0.00,VWS V14.01,2013-02-13 12:00:00,
2013-02-13 07:05:00,33.3,27.8,29.87,ENE,78,0.0,3.6,80,0.00,,OVC037,0.00,0.00,VWS V14.01,2013-02-13 12:05:00,
2013-02-13 07:10:00,33.2,28.3,29.87,ENE,78,0.0,7.2,82,0.00,,OVC037,0.00,5.00,VWS V14.01,2013-02-13 12:10:00,
2013-02-13 07:15:00,33.0,27.8,29.87,East,86,18.1,18.1,81,0.00,,OVC037,0.00,5.00,VWS V14.01,2013-02-13 12:15:00,
2013-02-13 07:20:00,33.1,27.6,29.87,East,101,0.0,18.1,80,0.00,,OVC037,0.00,7.00,VWS V14.01,2013-02-13 12:20:00,
2013-02-13 07:25:00,33.1,27.6,29.87,North,355,0.0,18.1,80,0.00,,OVC037,0.00,11.00,VWS V14.01,2013-02-13 12:25:00,
2013-02-13 07:30:00,33.0,27.8,29.87,North,355,3.6,18.1,81,0.00,,OVC037,0.00,12.00,VWS V14.01,2013-02-13 12:30:00,
2013-02-13 07:35:00,33.1,27.3,29.87,North,355,0.0,3.6,79,0.00,,OVC037,0.00,14.00,VWS V14.01,2013-02-13 12:35:00,
2013-02-13 07:40:00,33.2,27.1,29.87,North,355,3.6,7.2,78,0.00,,OVC037,0.00,18.00,VWS V14.01,2013-02-13 12:40:00,
2013-02-13 07:45:00,33.2,26.8,29.87,North,355,0.0,7.2,77,0.00,,OVC037,0.00,23.00,VWS V14.01,2013-02-13 12:45:00,
2013-02-13 07:50:00,33.3,26.6,29.87,ESE,118,3.6,18.1,76,0.00,,OVC037,0.00,28.00,VWS V14.01,2013-02-13 12:50:00,
2013-02-13 07:55:00,33.6,26.5,29.87,ESE,115,3.6,18.1,75,0.00,,OVC037,0.00,28.00,VWS V14.01,2013-02-13 12:55:00,
2013-02-13 08:00:00,33.8,26.4,29.87,ESE,113,0.0,18.1,74,0.00,,OVC037,0.00,28.00,VWS V14.01,2013-02-13 13:00:00,
2013-02-13 08:05:00,33.9,26.2,29.88,East,99,10.8,14.4,73,0.00,,OVC033,0.00,30.00,VWS V14.01,2013-02-13 13:05:00,
2013-02-13 08:10:00,34.0,26.3,29.88,East,98,14.4,14.4,73,0.00,,OVC033,0.00,40.00,VWS V14.01,2013-02-13 13:10:00,
2013-02-13 08:15:00,34.1,26.0,29.88,ENE,72,3.6,18.1,72,0.00,,OVC033,0.00,47.00,VWS V14.01,2013-02-13 13:15:00,
2013-02-13 08:20:00,34.2,26.1,29.88,East,84,7.2,18.1,72,0.00,,OVC033,0.00,54.00,VWS V14.01,2013-02-13 13:20:00,
2013-02-13 08:25:00,34.3,26.2,29.88,East,87,3.6,18.1,72,0.00,,OVC033,0.00,65.00,VWS V14.01,2013-02-13 13:25:00,
2013-02-13 08:30:00,34.4,27.0,29.88,ENE,70,0.0,18.1,74,0.00,,OVC033,0.00,83.00,VWS V14.01,2013-02-13 13:30:00,
2013-02-13 08:35:00,34.5,26.4,29.88,ENE,70,0.0,7.2,72,0.00,,OVC033,0.00,95.00,VWS V14.01,2013-02-13 13:35:00,
2013-02-13 08:40:00,34.7,26.3,29.87,ENE,70,7.2,10.8,71,0.00,,OVC033,0.00,123.00,VWS V14.01,2013-02-13 13:40:00,
2013-02-13 08:45:00,35.0,25.9,29.88,ENE,70,3.6,10.8,69,0.00,,OVC033,0.00,130.00,VWS V14.01,2013-02-13 13:45:00,
2013-02-13 08:50:00,35.2,26.1,29.88,East,101,3.6,14.4,69,0.00,,OVC033,0.00,120.00,VWS V14.01,2013-02-13 13:50:00,
2013-02-13 08:55:00,35.4,25.9,29.87,East,80,3.6,14.4,68,0.00,,OVC033,0.00,125.00,VWS V14.01,2013-02-13 13:55:00,
2013-02-13 09:00:00,35.5,26.7,29.87,East,80,3.6,14.4,70,0.00,,OVC033,0.00,123.00,VWS V14.01,2013-02-13 14:00:00,
2013-02-13 09:05:00,35.6,25.7,29.87,East,80,0.0,7.2,67,0.00,,OVC033,0.00,105.00,VWS V14.01,2013-02-13 14:05:00,
2013-02-13 09:10:00,35.7,26.2,29.87,East,101,3.6,10.8,68,0.00,,OVC033,0.00,120.00,VWS V14.01,2013-02-13 14:10:00,
2013-02-13 09:15:00,35.7,25.8,29.87,East,101,7.2,10.8,67,0.00,,OVC033,0.00,155.00,VWS V14.01,2013-02-13 14:15:00,
2013-02-13 09:20:00,35.9,26.0,29.87,East,95,7.2,10.8,67,0.00,,OVC033,0.00,144.00,VWS V14.01,2013-02-13 14:20:00,
2013-02-13 09:25:00,36.0,26.1,29.87,ESE,104,7.2,14.4,67,0.00,,OVC033,0.00,227.00,VWS V14.01,2013-02-13 14:25:00,
2013-02-13 09:30:00,36.3,26.0,29.87,ESE,104,7.2,14.4,66,0.00,,OVC033,0.00,151.00,VWS V14.01,2013-02-13 14:30:00,
2013-02-13 09:35:00,36.4,26.1,29.87,ESE,105,3.6,14.4,66,0.00,,OVC033,0.00,142.00,VWS V14.01,2013-02-13 14:35:00,
2013-02-13 09:40:00,36.5,25.9,29.86,ENE,74,10.8,14.4,65,0.00,,OVC033,0.00,155.00,VWS V14.01,2013-02-13 14:40:00,
2013-02-13 09:45:00,36.5,25.9,29.86,ENE,78,7.2,18.1,65,0.00,,OVC033,0.00,253.00,VWS V14.01,2013-02-13 14:45:00,
2013-02-13 09:50:00,36.8,25.8,29.86,ESE,103,14.4,18.1,64,0.00,,OVC033,0.00,158.00,VWS V14.01,2013-02-13 14:50:00,
2013-02-13 09:55:00,36.9,25.9,29.86,East,93,10.8,18.1,64,0.00,,OVC033,0.00,207.00,VWS V14.01,2013-02-13 14:55:00,
2013-02-13 10:00:00,36.9,25.9,29.85,East,100,7.2,18.1,64,0.00,,OVC033,0.00,171.00,VWS V14.01,2013-02-13 15:00:00,
2013-02-13 10:05:00,36.8,25.4,29.85,ESE,104,3.6,18.1,63,0.00,,OVC031,0.00,141.00,VWS V14.01,2013-02-13 15:05:00,
2013-02-13 10:10:00,36.9,25.5,29.85,ESE,107,7.2,18.1,63,0.00,,OVC031,0.00,631.00,VWS V14.01,2013-02-13 15:10:00,
2013-02-13 10:15:00,37.4,26.0,29.85,ESE,110,10.8,18.1,63,0.00,,OVC031,0.00,302.00,VWS V14.01,2013-02-13 15:15:00,
2013-02-13 10:20:00,38.1,25.9,29.85,ESE,114,10.8,18.1,61,0.00,,OVC031,0.00,234.00,VWS V14.01,2013-02-13 15:20:00,
2013-02-13 10:25:00,38.5,26.2,29.85,East,96,7.2,18.1,61,0.00,,OVC031,0.00,698.00,VWS V14.01,2013-02-13 15:25:00,
2013-02-13 10:30:00,39.2,26.1,29.85,ENE,72,14.4,18.1,59,0.00,,OVC031,0.00,689.00,VWS V14.01,2013-02-13 15:30:00,
2013-02-13 10:35:00,39.4,25.5,29.85,East,93,10.8,18.1,57,0.01,,OVC031,0.01,622.00,VWS V14.01,2013-02-13 15:35:00,
2013-02-13 10:40:00,39.1,25.6,29.85,East,86,7.2,18.1,58,0.01,,OVC031,0.01,608.00,VWS V14.01,2013-02-13 15:40:00,
2013-02-13 10:45:00,39.1,25.6,29.84,East,90,10.8,18.1,58,0.01,,OVC031,0.01,638.00,VWS V14.01,2013-02-13 15:45:00,
2013-02-13 10:50:00,39.0,25.5,29.84,East,101,10.8,21.7,58,0.01,,OVC031,0.01,547.00,VWS V14.01,2013-02-13 15:50:00,
2013-02-13 10:55:00,39.1,25.2,29.85,ESE,117,7.2,21.7,57,0.01,,OVC031,0.01,663.00,VWS V14.01,2013-02-13 15:55:00,
2013-02-13 11:00:00,39.5,25.1,29.84,ESE,108,0.0,21.7,56,0.01,,OVC031,0.01,642.00,VWS V14.01,2013-02-13 16:00:00,
2013-02-13 11:05:00,40.0,26.4,29.84,East,82,7.2,18.1,58,0.02,,OVC037,0.02,624.00,VWS V14.01,2013-02-13 16:05:00,
2013-02-13 11:10:00,40.5,26.5,29.85,ENE,66,7.2,18.1,57,0.02,,OVC037,0.02,617.00,VWS V14.01,2013-02-13 16:10:00,
2013-02-13 11:15:00,40.6,25.7,29.84,East,92,10.8,18.1,55,0.02,,OVC037,0.02,603.00,VWS V14.01,2013-02-13 16:15:00,
2013-02-13 11:20:00,40.5,25.6,29.85,ESE,114,3.6,18.1,55,0.02,,OVC037,0.02,606.00,VWS V14.01,2013-02-13 16:20:00,
2013-02-13 11:25:00,40.4,24.6,29.84,SE,130,14.4,18.1,53,0.03,,OVC037,0.03,642.00,VWS V14.01,2013-02-13 16:25:00,
2013-02-13 11:30:00,40.1,25.7,29.84,ESE,111,7.2,18.1,56,0.03,,OVC037,0.03,589.00,VWS V14.01,2013-02-13 16:30:00,
2013-02-13 11:35:00,39.3,24.9,29.84,ESE,112,7.2,14.4,56,0.03,,OVC037,0.03,76.00,VWS V14.01,2013-02-13 16:35:00,
2013-02-13 11:40:00,38.6,24.3,29.84,NNE,22,7.2,14.4,56,0.04,,OVC037,0.04,130.00,VWS V14.01,2013-02-13 16:40:00,
2013-02-13 11:45:00,38.6,25.1,29.84,NE,45,0.0,14.4,58,0.04,,OVC037,0.04,91.00,VWS V14.01,2013-02-13 16:45:00,
2013-02-13 11:50:00,38.7,25.2,29.83,ESE,107,10.8,14.4,58,0.04,,OVC037,0.04,172.00,VWS V14.01,2013-02-13 16:50:00,
2013-02-13 11:55:00,38.9,25.8,29.83,ESE,112,3.6,14.4,59,0.04,,OVC037,0.04,137.00,VWS V14.01,2013-02-13 16:55:00,
2013-02-13 12:00:00,39.1,25.6,29.83,ESE,119,7.2,18.1,58,0.04,,OVC037,0.04,79.00,VWS V14.01,2013-02-13 17:00:00,
2013-02-13 12:05:00,39.3,25.8,29.82,ESE,119,0.0,10.8,58,0.02,,BKN039,0.04,86.00,VWS V14.01,2013-02-13 17:05:00,
2013-02-13 12:10:00,39.4,25.5,29.82,East,90,3.6,10.8,57,0.02,,BKN039,0.04,88.00,VWS V14.01,2013-02-13 17:10:00,
2013-02-13 12:15:00,39.8,27.1,29.82,East,90,0.0,10.8,60,0.02,,BKN039,0.04,114.00,VWS V14.01,2013-02-13 17:15:00,
2013-02-13 12:20:00,40.0,24.7,29.82,East,98,10.8,10.8,54,0.02,,BKN039,0.04,592.00,VWS V14.01,2013-02-13 17:20:00,
2013-02-13 12:25:00,40.4,25.1,29.82,East,98,0.0,10.8,54,0.03,,BKN039,0.05,577.00,VWS V14.01,2013-02-13 17:25:00,
2013-02-13 12:30:00,40.9,25.1,29.82,East,98,3.6,10.8,53,0.03,,BKN039,0.05,585.00,VWS V14.01,2013-02-13 17:30:00,
2013-02-13 12:35:00,41.5,28.3,29.82,East,98,3.6,3.6,59,0.02,,BKN039,0.05,613.00,VWS V14.01,2013-02-13 17:35:00,
2013-02-13 12:40:00,41.9,25.1,29.82,NNW,329,10.8,14.4,51,0.03,,BKN039,0.06,555.00,VWS V14.01,2013-02-13 17:40:00,
2013-02-13 12:45:00,41.7,24.5,29.82,NE,40,10.8,14.4,50,0.03,,BKN039,0.06,557.00,VWS V14.01,2013-02-13 17:45:00,
2013-02-13 12:50:00,41.6,25.3,29.82,ENE,76,14.4,14.4,52,0.03,,BKN039,0.06,292.00,VWS V14.01,2013-02-13 17:50:00,
2013-02-13 12:55:00,41.5,25.7,29.82,ESE,119,7.2,14.4,53,0.03,,BKN039,0.06,278.00,VWS V14.01,2013-02-13 17:55:00,
2013-02-13 13:00:00,41.3,25.0,29.82,ESE,111,3.6,14.4,52,0.04,,BKN039,0.07,473.00,VWS V14.01,2013-02-13 18:00:00,
2013-02-13 13:05:00,41.4,24.6,29.82,ESE,111,10.8,10.8,51,0.03,,FEW041,0.07,429.00,VWS V14.01,2013-02-13 18:05:00,
2013-02-13 13:10:00,41.5,25.2,29.81,ESE,109,7.2,14.4,52,0.03,,FEW041,0.07,526.00,VWS V14.01,2013-02-13 18:10:00,
2013-02-13 13:15:00,41.5,24.3,29.81,NNE,30,7.2,14.4,50,0.03,,FEW041,0.07,492.00,VWS V14.01,2013-02-13 18:15:00,
2013-02-13 13:20:00,41.4,24.6,29.81,ENE,58,7.2,18.1,51,0.04,,FEW041,0.08,499.00,VWS V14.01,2013-02-13 18:20:00,
2013-02-13 13:25:00,41.5,25.2,29.80,East,79,10.8,18.1,52,0.04,,FEW041,0.08,181.00,VWS V14.01,2013-02-13 18:25:00,
2013-02-13 13:30:00,41.6,24.4,29.80,East,94,7.2,18.1,50,0.04,,FEW041,0.08,116.00,VWS V14.01,2013-02-13 18:30:00,
2013-02-13 13:35:00,41.6,25.3,29.79,ENE,67,7.2,10.8,52,0.03,,FEW041,0.08,141.00,VWS V14.01,2013-02-13 18:35:00,
2013-02-13 13:40:00,41.7,24.9,29.79,ESE,109,3.6,18.1,51,0.03,,FEW041,0.08,111.00,VWS V14.01,2013-02-13 18:40:00,
2013-02-13 13:45:00,41.6,24.4,29.78,East,91,14.4,18.1,50,0.03,,FEW041,0.08,77.00,VWS V14.01,2013-02-13 18:45:00,
2013-02-13 13:50:00,41.5,23.8,29.78,East,94,3.6,18.1,49,0.04,,FEW041,0.09,72.00,VWS V14.01,2013-02-13 18:50:00,
2013-02-13 13:55:00,41.5,24.7,29.78,East,82,7.2,18.1,51,0.04,,FEW041,0.09,207.00,VWS V14.01,2013-02-13 18:55:00,
2013-02-13 14:00:00,41.6,23.9,29.78,NE,39,3.6,18.1,49,0.04,,FEW041,0.09,72.00,VWS V14.01,2013-02-13 19:00:00,
2013-02-13 14:05:00,41.6,23.9,29.77,NNE,21,0.0,7.2,49,0.02,,FEW046,0.09,51.00,VWS V14.01,2013-02-13 19:05:00,
2013-02-13 14:10:00,41.6,23.9,29.77,East,86,0.0,10.8,49,0.02,,FEW046,0.09,178.00,VWS V14.01,2013-02-13 19:10:00,
2013-02-13 14:15:00,41.8,24.1,29.77,East,86,3.6,10.8,49,0.02,,FEW046,0.09,67.00,VWS V14.01,2013-02-13 19:15:00,
2013-02-13 14:20:00,42.2,24.9,29.76,East,86,0.0,10.8,50,0.02,,FEW046,0.09,98.00,VWS V14.01,2013-02-13 19:20:00,
2013-02-13 14:25:00,42.3,25.9,29.76,East,86,3.6,10.8,52,0.02,,FEW046,0.09,163.00,VWS V14.01,2013-02-13 19:25:00,
2013-02-13 14:30:00,42.4,25.6,29.76,East,86,3.6,10.8,51,0.02,,FEW046,0.09,232.00,VWS V14.01,2013-02-13 19:30:00,
2013-02-13 14:35:00,42.4,24.1,29.76,East,86,3.6,7.2,48,0.01,,FEW046,0.09,179.00,VWS V14.01,2013-02-13 19:35:00,
2013-02-13 14:40:00,42.4,24.1,29.75,East,86,0.0,7.2,48,0.02,,FEW046,0.10,44.00,VWS V14.01,2013-02-13 19:40:00,
2013-02-13 14:45:00,42.5,26.1,29.75,East,86,0.0,7.2,52,0.02,,FEW046,0.10,63.00,VWS V14.01,2013-02-13 19:45:00,
2013-02-13 14:50:00,42.7,25.4,29.75,East,86,3.6,10.8,50,0.02,,FEW046,0.10,84.00,VWS V14.01,2013-02-13 19:50:00,
2013-02-13 14:55:00,42.6,27.6,29.75,East,86,3.6,10.8,55,0.02,,FEW046,0.10,195.00,VWS V14.01,2013-02-13 19:55:00,
2013-02-13 15:00:00,42.6,26.7,29.74,East,86,3.6,10.8,53,0.02,,FEW046,0.10,130.00,VWS V14.01,2013-02-13 20:00:00,
2013-02-13 15:05:00,42.5,25.7,29.74,East,86,0.0,10.8,51,0.01,,CLR,0.10,90.00,VWS V14.01,2013-02-13 20:05:00,
2013-02-13 15:10:00,42.6,25.8,29.74,East,86,3.6,10.8,51,0.01,,CLR,0.10,42.00,VWS V14.01,2013-02-13 20:10:00,
2013-02-13 15:15:00,42.6,28.5,29.75,East,86,3.6,10.8,57,0.01,,CLR,0.10,65.00,VWS V14.01,2013-02-13 20:15:00,
2013-02-13 15:20:00,42.3,27.7,29.75,East,86,0.0,10.8,56,0.01,,CLR,0.10,60.00,VWS V14.01,2013-02-13 20:20:00,
2013-02-13 15:25:00,41.9,28.6,29.75,East,86,3.6,10.8,59,0.01,,CLR,0.10,39.00,VWS V14.01,2013-02-13 20:25:00,
2013-02-13 15:30:00,41.6,28.4,29.75,East,86,3.6,10.8,59,0.01,,CLR,0.10,84.00,VWS V14.01,2013-02-13 20:30:00,
2013-02-13 15:35:00,41.3,28.9,29.75,East,86,7.2,7.2,61,0.01,,CLR,0.10,49.00,VWS V14.01,2013-02-13 20:35:00,
2013-02-13 15:40:00,41.1,28.7,29.74,East,86,3.6,7.2,61,0.01,,CLR,0.10,33.00,VWS V14.01,2013-02-13 20:40:00,
2013-02-13 15:45:00,40.9,27.7,29.74,East,86,3.6,7.2,59,0.01,,CLR,0.10,93.00,VWS V14.01,2013-02-13 20:45:00,
2013-02-13 15:50:00,40.7,28.3,29.74,East,86,0.0,7.2,61,0.01,,CLR,0.10,35.00,VWS V14.01,2013-02-13 20:50:00,
2013-02-13 15:55:00,40.5,27.3,29.74,East,86,0.0,7.2,59,0.01,,CLR,0.10,54.00,VWS V14.01,2013-02-13 20:55:00,
2013-02-13 16:00:00,40.4,28.0,29.74,East,86,0.0,7.2,61,0.01,,CLR,0.10,44.00,VWS V14.01,2013-02-13 21:00:00,
2013-02-13 16:05:00,40.1,26.9,29.74,East,86,0.0,0.0,59,0.00,,CLR,0.10,21.00,VWS V14.01,2013-02-13 21:05:00,
2013-02-13 16:10:00,39.7,26.6,29.74,East,86,0.0,0.0,59,0.00,,CLR,0.10,19.00,VWS V14.01,2013-02-13 21:10:00,
2013-02-13 16:15:00,39.3,27.0,29.74,East,86,0.0,0.0,61,0.00,,CLR,0.10,18.00,VWS V14.01,2013-02-13 21:15:00,
2013-02-13 16:20:00,39.0,27.9,29.74,East,86,0.0,3.6,64,0.00,,CLR,0.10,16.00,VWS V14.01,2013-02-13 21:20:00,
2013-02-13 16:25:00,38.6,27.5,29.74,East,86,0.0,3.6,64,0.00,,CLR,0.10,16.00,VWS V14.01,2013-02-13 21:25:00,
2013-02-13 16:30:00,38.1,27.0,29.74,East,86,3.6,3.6,64,0.00,,CLR,0.10,21.00,VWS V14.01,2013-02-13 21:30:00,
2013-02-13 16:35:00,37.7,28.5,29.74,East,86,0.0,7.2,69,0.00,,CLR,0.10,28.00,VWS V14.01,2013-02-13 21:35:00,
2013-02-13 16:40:00,37.5,29.0,29.74,East,86,0.0,7.2,71,0.00,,CLR,0.10,21.00,VWS V14.01,2013-02-13 21:40:00,
2013-02-13 16:45:00,37.3,29.1,29.74,East,86,0.0,7.2,72,0.00,,CLR,0.10,21.00,VWS V14.01,2013-02-13 21:45:00,
2013-02-13 16:50:00,37.1,28.6,29.74,East,86,0.0,7.2,71,0.00,,CLR,0.10,16.00,VWS V14.01,2013-02-13 21:50:00,
2013-02-13 16:55:00,36.9,29.1,29.73,East,86,0.0,7.2,73,0.00,,CLR,0.10,12.00,VWS V14.01,2013-02-13 21:55:00,
2013-02-13 17:00:00,36.6,28.8,29.73,East,86,0.0,7.2,73,0.00,,CLR,0.10,9.00,VWS V14.01,2013-02-13 22:00:00,
2013-02-13 17:05:00,36.2,28.7,29.73,East,86,0.0,3.6,74,0.00,,CLR,0.10,7.00,VWS V14.01,2013-02-13 22:05:00,
2013-02-13 17:10:00,36.0,28.5,29.73,East,86,0.0,3.6,74,0.00,,CLR,0.10,5.00,VWS V14.01,2013-02-13 22:10:00,
2013-02-13 17:15:00,35.8,28.7,29.73,East,86,0.0,3.6,75,0.00,,CLR,0.10,5.00,VWS V14.01,2013-02-13 22:15:00,
2013-02-13 17:20:00,35.5,28.4,29.73,East,86,0.0,3.6,75,0.00,,CLR,0.10,0.00,VWS V14.01,2013-02-13 22:20:00,
2013-02-13 17:25:00,35.3,28.2,29.73,East,86,0.0,3.6,75,0.00,,CLR,0.10,0.00,VWS V14.01,2013-02-13 22:25:00,
2013-02-13 17:30:00,35.1,28.3,29.73,East,86,0.0,3.6,76,0.00,,CLR,0.10,0.00,VWS V14.01,2013-02-13 22:30:00,
2013-02-13 17:35:00,34.8,27.4,29.74,East,86,0.0,0.0,74,0.00,,CLR,0.10,0.00,VWS V14.01,2013-02-13 22:35:00,
2013-02-13 17:40:00,34.6,27.5,29.74,East,86,0.0,3.6,75,0.00,,CLR,0.10,0.00,VWS V14.01,2013-02-13 22:40:00,
2013-02-13 17:45:00,34.3,27.5,29.74,East,86,0.0,3.6,76,0.00,,CLR,0.10,0.00,VWS V14.01,2013-02-13 22:45:00,
2013-02-13 17:50:00,34.1,28.0,29.74,East,86,0.0,3.6,78,0.00,,CLR,0.10,0.00,VWS V14.01,2013-02-13 22:50:00,
2013-02-13 17:55:00,33.9,27.1,29.74,East,86,0.0,3.6,76,0.00,,CLR,0.10,0.00,VWS V14.01,2013-02-13 22:55:00,
2013-02-13 18:00:00,33.7,27.3,29.74,East,86,0.0,3.6,77,0.00,,CLR,0.10,0.00,VWS V14.01,2013-02-13 23:00:00,
2013-02-13 18:05:00,33.5,27.7,29.74,East,86,0.0,3.6,79,0.00,,CLR,0.10,0.00,VWS V14.01,2013-02-13 23:05:00,
2013-02-13 18:10:00,33.3,27.2,29.74,East,86,0.0,3.6,78,0.00,,CLR,0.10,0.00,VWS V14.01,2013-02-13 23:10:00,
2013-02-13 18:15:00,33.2,27.7,29.74,East,86,0.0,3.6,80,0.00,,CLR,0.10,0.00,VWS V14.01,2013-02-13 23:15:00,
2013-02-13 18:20:00,33.0,27.5,29.74,East,86,0.0,3.6,80,0.00,,CLR,0.10,0.00,VWS V14.01,2013-02-13 23:20:00,
2013-02-13 18:25:00,33.0,27.8,29.73,East,86,0.0,3.6,81,0.00,,CLR,0.10,0.00,VWS V14.01,2013-02-13 23:25:00,
2013-02-13 18:30:00,32.9,28.0,29.73,East,86,0.0,3.6,82,0.00,,CLR,0.10,0.00,VWS V14.01,2013-02-13 23:30:00,
2013-02-13 18:35:00,32.8,28.2,29.74,East,86,0.0,0.0,83,0.00,,CLR,0.10,0.00,VWS V14.01,2013-02-13 23:35:00,
2013-02-13 18:40:00,32.7,28.1,29.73,East,86,0.0,0.0,83,0.00,,CLR,0.10,0.00,VWS V14.01,2013-02-13 23:40:00,
2013-02-13 18:45:00,32.7,27.8,29.73,East,86,0.0,0.0,82,0.00,,CLR,0.10,0.00,VWS V14.01,2013-02-13 23:45:00,
2013-02-13 18:50:00,32.6,27.7,29.73,East,86,0.0,0.0,82,0.00,,CLR,0.10,0.00,VWS V14.01,2013-02-13 23:50:00,
2013-02-13 18:55:00,32.5,27.9,29.73,East,86,0.0,0.0,83,0.00,,CLR,0.10,0.00,VWS V14.01,2013-02-13 23:55:00,
2013-02-13 19:00:00,32.4,27.8,29.73,East,86,0.0,0.0,83,0.00,,CLR,0.10,0.00,VWS V14.01,2013-02-14 00:00:00,
2013-02-13 19:05:00,32.4,28.1,29.74,East,86,0.0,0.0,84,0.00,,CLR,0.10,0.00,VWS V14.01,2013-02-14 00:05:00,
2013-02-13 19:10:00,32.5,28.2,29.74,East,86,0.0,0.0,84,0.00,,CLR,0.10,0.00,VWS V14.01,2013-02-14 00:10:00,
2013-02-13 19:15:00,32.5,28.2,29.74,East,86,0.0,3.6,84,0.00,,CLR,0.10,0.00,VWS V14.01,2013-02-14 00:15:00,
2013-02-13 19:20:00,32.5,27.9,29.74,East,86,0.0,7.2,83,0.00,,CLR,0.10,0.00,VWS V14.01,2013-02-14 00:20:00,
2013-02-13 19:25:00,32.5,27.9,29.74,East,86,0.0,7.2,83,0.00,,CLR,0.10,0.00,VWS V14.01,2013-02-14 00:25:00,
2013-02-13 19:30:00,32.5,28.2,29.74,East,86,0.0,7.2,84,0.00,,CLR,0.10,0.00,VWS V14.01,2013-02-14 00:30:00,
2013-02-13 19:35:00,32.4,28.1,29.74,East,86,0.0,0.0,84,0.00,,CLR,0.10,0.00,VWS V14.01,2013-02-14 00:35:00,
2013-02-13 19:40:00,32.4,28.1,29.74,East,86,0.0,0.0,84,0.00,,CLR,0.10,0.00,VWS V14.01,2013-02-14 00:40:00,
2013-02-13 19:45:00,32.4,28.4,29.74,East,86,0.0,0.0,85,0.00,,CLR,0.10,0.00,VWS V14.01,2013-02-14 00:45:00,
2013-02-13 19:50:00,32.4,28.4,29.74,East,86,0.0,0.0,85,0.00,,CLR,0.10,0.00,VWS V14.01,2013-02-14 00:50:00,
2013-02-13 19:55:00,32.4,27.8,29.74,East,86,0.0,3.6,83,0.00,,CLR,0.10,0.00,VWS V14.01,2013-02-14 00:55:00,
2013-02-13 20:00:00,32.5,28.2,29.73,East,86,0.0,3.6,84,0.00,,CLR,0.10,0.00,VWS V14.01,2013-02-14 01:00:00,
2013-02-13 20:06:00,32.5,28.2,29.73,East,86,0.0,3.6,84,0.00,,CLR,0.10,0.00,VWS V14.01,2013-02-14 01:06:00,
2013-02-13 20:11:00,32.5,28.5,29.74,East,86,0.0,3.6,85,0.00,,CLR,0.10,0.00,VWS V14.01,2013-02-14 01:11:00,
2013-02-13 20:16:00,32.5,28.5,29.74,East,86,0.0,3.6,85,0.00,,CLR,0.10,0.00,VWS V14.01,2013-02-14 01:16:00,
2013-02-13 20:21:00,32.4,28.4,29.73,East,86,0.0,3.6,85,0.00,,CLR,0.10,0.00,VWS V14.01,2013-02-14 01:21:00,
2013-02-13 20:26:00,32.3,28.0,29.74,East,86,0.0,3.6,84,0.00,,CLR,0.10,0.00,VWS V14.01,2013-02-14 01:26:00,
2013-02-13 20:30:00,32.0,28.0,29.74,East,86,0.0,3.6,85,0.00,,CLR,0.10,0.00,VWS V14.01,2013-02-14 01:30:00,
2013-02-13 20:31:00,32.3,27.7,29.74,East,86,0.0,3.6,83,0.00,,CLR,0.10,0.00,VWS V14.01,2013-02-14 01:31:00,
2013-02-13 20:36:00,32.2,27.9,29.74,East,86,0.0,0.0,84,0.00,,CLR,0.10,0.00,VWS V14.01,2013-02-14 01:36:00,
2013-02-13 20:41:00,32.2,27.6,29.74,East,86,0.0,0.0,83,0.00,,CLR,0.10,0.00,VWS V14.01,2013-02-14 01:41:00,
2013-02-13 20:46:00,32.2,27.6,29.74,East,86,0.0,0.0,83,0.00,,CLR,0.10,0.00,VWS V14.01,2013-02-14 01:46:00,
2013-02-13 20:51:00,32.3,28.0,29.75,East,86,0.0,0.0,84,0.00,,CLR,0.10,0.00,VWS V14.01,2013-02-14 01:51:00,
2013-02-13 20:56:00,32.3,28.0,29.74,East,86,0.0,0.0,84,0.00,,CLR,0.10,0.00,VWS V14.01,2013-02-14 01:56:00,
2013-02-13 21:00:00,32.0,28.0,29.74,East,86,0.0,3.6,85,0.00,,CLR,0.10,0.00,VWS V14.01,2013-02-14 02:00:00,
2013-02-13 21:01:00,32.2,27.9,29.74,East,86,0.0,0.0,84,0.00,,CLR,0.10,0.00,VWS V14.01,2013-02-14 02:01:00,
2013-02-13 21:06:00,32.3,28.3,29.74,East,86,3.6,3.6,85,0.00,,BKN110,0.10,0.00,VWS V14.01,2013-02-14 02:06:00,
2013-02-13 21:11:00,32.2,27.9,29.74,East,86,0.0,3.6,84,0.00,,BKN110,0.10,0.00,VWS V14.01,2013-02-14 02:11:00,
2013-02-13 21:16:00,32.1,28.1,29.74,East,86,0.0,3.6,85,0.00,,BKN110,0.10,0.00,VWS V14.01,2013-02-14 02:16:00,
2013-02-13 21:21:00,32.1,28.1,29.74,East,86,0.0,3.6,85,0.00,,BKN110,0.10,0.00,VWS V14.01,2013-02-14 02:21:00,
2013-02-13 21:26:00,32.1,28.1,29.74,East,86,0.0,3.6,85,0.00,,BKN110,0.10,0.00,VWS V14.01,2013-02-14 02:26:00,
2013-02-13 21:30:00,31.9,27.9,29.73,East,86,0.0,0.0,85,0.00,,CLR,0.10,0.00,VWS V14.01,2013-02-14 02:30:00,
2013-02-13 21:31:00,32.0,28.0,29.74,East,86,0.0,3.6,85,0.00,,BKN110,0.10,0.00,VWS V14.01,2013-02-14 02:31:00,
2013-02-13 21:36:00,32.0,28.3,29.74,East,86,0.0,0.0,86,0.00,,BKN110,0.10,0.00,VWS V14.01,2013-02-14 02:36:00,
2013-02-13 21:41:00,32.0,28.0,29.74,East,86,0.0,3.6,85,0.00,,BKN110,0.10,0.00,VWS V14.01,2013-02-14 02:41:00,
2013-02-13 21:46:00,32.0,28.0,29.73,East,86,0.0,3.6,85,0.00,,BKN110,0.10,0.00,VWS V14.01,2013-02-14 02:46:00,
2013-02-13 21:51:00,32.0,28.3,29.74,East,86,0.0,3.6,86,0.00,,BKN110,0.10,0.00,VWS V14.01,2013-02-14 02:51:00,
2013-02-13 21:56:00,32.0,28.0,29.74,East,86,0.0,3.6,85,0.00,,BKN110,0.10,0.00,VWS V14.01,2013-02-14 02:56:00,
2013-02-13 22:00:00,31.8,27.8,29.73,East,86,0.0,0.0,85,0.00,,-RA,0.10,0.00,VWS V14.01,2013-02-14 03:00:00,
2013-02-13 22:01:00,32.0,28.0,29.74,East,86,0.0,3.6,85,0.00,,BKN110,0.10,0.00,VWS V14.01,2013-02-14 03:01:00,
2013-02-13 22:06:00,32.0,28.3,29.74,East,86,0.0,0.0,86,0.00,,OVC090,0.10,0.00,VWS V14.01,2013-02-14 03:06:00,
2013-02-13 22:11:00,32.0,28.0,29.74,East,86,0.0,0.0,85,0.00,,OVC090,0.10,0.00,VWS V14.01,2013-02-14 03:11:00,
2013-02-13 22:16:00,32.0,28.0,29.74,East,86,0.0,0.0,85,0.00,,OVC090,0.10,0.00,VWS V14.01,2013-02-14 03:16:00,
2013-02-13 22:21:00,32.0,28.3,29.74,East,86,0.0,0.0,86,0.00,,OVC090,0.10,0.00,VWS V14.01,2013-02-14 03:21:00,
2013-02-13 22:26:00,31.9,27.9,29.73,East,86,0.0,0.0,85,0.00,,OVC090,0.10,0.00,VWS V14.01,2013-02-14 03:26:00,
2013-02-13 22:30:00,31.8,28.4,29.72,East,86,0.0,0.0,87,0.00,,-RA,0.10,0.00,VWS V14.01,2013-02-14 03:30:00,
2013-02-13 22:31:00,31.9,27.9,29.73,East,86,0.0,0.0,85,0.00,,OVC090,0.10,0.00,VWS V14.01,2013-02-14 03:31:00,
2013-02-13 22:36:00,31.9,27.9,29.73,East,86,0.0,0.0,85,0.00,,OVC090,0.10,0.00,VWS V14.01,2013-02-14 03:36:00,
2013-02-13 22:41:00,31.9,27.9,29.73,East,86,0.0,0.0,85,0.00,,OVC090,0.10,0.00,VWS V14.01,2013-02-14 03:41:00,
2013-02-13 22:46:00,31.9,27.9,29.73,East,86,0.0,0.0,85,0.00,,OVC090,0.10,0.00,VWS V14.01,2013-02-14 03:46:00,
2013-02-13 22:51:00,31.9,27.6,29.73,East,86,0.0,0.0,84,0.00,,OVC090,0.10,0.00,VWS V14.01,2013-02-14 03:51:00,
2013-02-13 22:56:00,31.8,27.8,29.73,East,86,0.0,0.0,85,0.00,,OVC090,0.10,0.00,VWS V14.01,2013-02-14 03:56:00,
2013-02-13 23:00:00,31.5,27.8,29.72,East,86,0.0,0.0,86,0.00,,CLR,0.00,0.00,VWS V14.01,2013-02-14 04:00:00,
2013-02-13 23:01:00,31.8,27.8,29.73,East,86,0.0,0.0,85,0.00,,OVC090,0.10,0.00,VWS V14.01,2013-02-14 04:01:00,
2013-02-13 23:06:00,31.8,28.1,29.73,East,86,0.0,0.0,86,0.00,,OVC085,0.10,0.00,VWS V14.01,2013-02-14 04:06:00,
2013-02-13 23:11:00,31.8,28.4,29.73,East,86,0.0,0.0,87,0.00,,OVC085,0.10,0.00,VWS V14.01,2013-02-14 04:11:00,
2013-02-13 23:16:00,31.8,28.4,29.73,East,86,0.0,0.0,87,0.00,,OVC085,0.10,0.00,VWS V14.01,2013-02-14 04:16:00,
2013-02-13 23:21:00,31.8,28.4,29.73,East,86,0.0,0.0,87,0.00,,OVC085,0.10,0.00,VWS V14.01,2013-02-14 04:21:00,
2013-02-13 23:26:00,31.8,28.4,29.73,East,86,0.0,0.0,87,0.00,,OVC085,0.10,0.00,VWS V14.01,2013-02-14 04:26:00,
2013-02-13 23:30:00,31.4,28.0,29.73,East,86,0.0,0.0,87,0.00,,CLR,0.00,0.00,VWS V14.01,2013-02-14 04:30:00,
2013-02-13 23:31:00,31.8,28.4,29.73,East,86,0.0,0.0,87,0.00,,OVC085,0.10,0.00,VWS V14.01,2013-02-14 04:31:00,
2013-02-13 23:36:00,31.7,28.0,29.73,East,86,0.0,0.0,86,0.00,,OVC085,0.10,0.00,VWS V14.01,2013-02-14 04:36:00,
2013-02-13 23:41:00,31.7,28.0,29.72,East,86,0.0,0.0,86,0.00,,OVC085,0.10,0.00,VWS V14.01,2013-02-14 04:41:00,
2013-02-13 23:46:00,31.6,27.9,29.72,East,86,0.0,0.0,86,0.00,,OVC085,0.10,0.00,VWS V14.01,2013-02-14 04:46:00,
2013-02-13 23:51:00,31.6,27.9,29.73,East,86,0.0,0.0,86,0.00,,OVC085,0.10,0.00,VWS V14.01,2013-02-14 04:51:00,
2013-02-13 23:56:00,31.5,27.8,29.73,East,86,0.0,0.0,86,0.00,,OVC085,0.10,0.00,VWS V14.01,2013-02-14 04:56:00,